Simultaneous Nadir Overpasses (SNOs) Predictions

Prediction of SNOs between AQUA and METOP-C Satellite Orbit:

Table of predicted SNOs for the next 14.0 days since TLE Epoch: 11/18/2023
Index Date (AQUA) Time (AQUA) Lat,Lon (AQUA) SZA (AQUA ) Date (METOP-C) Time (METOP-C) Lat,Lon (METOP-C) SZA (METOP-C ) Distance(km) Time Diff (sec)
1 11/19/2023 06:40:49 74.20, 78.19 93.53 11/19/2023 06:39:45 74.16, 74.91 93.49 99.59 64
2 11/19/2023 07:30:25 -74.87,-115.82 85.80 11/19/2023 07:30:13 -74.86,-115.91 85.81 2.80 12
3 11/19/2023 08:19:51 74.96, 51.60 94.30 11/19/2023 08:20:50 74.97, 51.72 94.31 3.65 59
4 11/21/2023 23:43:02 -74.85, 1.12 85.22 11/21/2023 23:41:54 -74.86, 1.18 85.21 2.13 68
5 11/22/2023 00:32:27 74.89, 168.67 94.83 11/22/2023 00:32:32 74.92, 168.68 94.87 3.56 5
6 11/22/2023 01:21:58 -75.29, -24.77 84.76 11/22/2023 01:23:07 -75.27, -22.98 84.77 50.59 69
7 11/24/2023 16:45:03 74.86, -74.38 95.37 11/24/2023 16:44:14 74.87, -74.39 95.37 0.54 49
8 11/24/2023 17:34:27 -74.91, 93.15 84.58 11/24/2023 17:34:55 -74.93, 93.12 84.56 2.36 28
9 11/27/2023 09:47:02 -74.88,-149.87 84.10 11/27/2023 09:46:37 -74.87,-149.97 84.11 3.08 25
10 11/27/2023 10:36:27 74.93, 17.64 95.96 11/27/2023 10:37:15 74.93, 17.55 95.97 2.83 48
11 11/30/2023 01:59:33 -74.73, -32.61 83.78 11/30/2023 01:58:21 -74.65, -33.48 83.86 27.03 72
12 11/30/2023 02:49:00 74.89, 134.63 96.39 11/30/2023 02:48:55 74.92, 134.58 96.41 3.01 5



Historial Predications of SNOs between AQUA and METOP-C
